Torna al catalogo

HULIANWANG DIGUI-124

AttivoComunicazioniLEO
NORAD 67064·PAYLOAD·🇨🇳 China

Lanciato Dec 11, 2025 da Wenchang Space Launch Site

Loading…

Prossimi Passaggi (prossime 24 ore)

TLE

AggiornatoSource: Space-Track

Epoca: Sep 14, 2026, 21:05 UTC

1 67064U 25295F   26257.87895108 -.00000125  00000-0 -27628-5 0  9994
2 67064  49.9996  63.6346 0000801  65.9747 294.1209 13.29326198 37434

Traccia HULIANWANG DIGUI-124 in tempo reale con AllMySat

Download on the App Store